Theta_e
359 360 359 359 357 358 357 356 355 356 357 355 353 356 355 359 359 358 358 359 359 359 358 361 363 362 359 360 362 361 355 356 355 351 354 358 357 354 353 355 357 356
360 361 363 360 359 360 360 360 358 358 357 357 356 357 359 359 357 358 359 358 359 358 360 359 361 362 361 357 359 358 355 355 355 348 350 355 356 353 351 351 353 359
359 360 360 359 357 358 357 359 361 359 357 356 356 358 356 359 359 360 360 359 358 357 358 359 360 360 358 359 360 357 353 356 354 350 353 354 355 355 356 354 355 357
360 361 359 358 359 356 356 357 359 359 359 357 356 356 357 355 357 358 359 359 359 358 358 359 358 357 358 358 361 357 354 356 355 356 355 356 356 355 354 355 356 355
358 360 361 360 357 357 357 356 356 357 357 357 357 358 357 358 359 356 358 358 359 358 357 358 358 357 357 358 359 356 353 352 355 359 357 356 357 355 352 352 352 351
360 362 362 360 360 358 355 357 357 356 357 356 357 358 357 357 357 357 356 356 356 354 354 355 354 354 355 357 358 356 352 350 351 356 354 356 354 351 348 350 352 352
357 359 360 361 358 357 358 356 358 358 357 357 359 358 358 356 356 357 358 358 356 356 354 354 356 354 355 355 357 357 356 357 356 355 355 354 355 353 351 349 351 352
358 359 362 360 358 360 355 354 356 357 360 360 357 359 359 356 357 357 358 357 356 355 356 353 355 357 354 355 355 357 356 352 351 357 359 357 356 355 354 351 352 354
360 359 357 357 356 357 354 354 355 357 360 359 358 358 359 358 355 356 357 359 357 356 357 354 356 355 357 355 354 355 355 352 348 350 353 353 352 353 352 352 351 353
355 354 352 352 352 355 353 352 355 357 360 359 359 359 356 358 357 356 357 359 358 358 357 357 355 355 355 356 354 355 356 355 354 352 351 351 350 350 350 351 350 352
355 354 353 352 353 353 352 355 356 357 359 359 359 357 358 358 359 358 357 357 355 357 358 358 357 357 357 356 355 356 356 354 356 356 354 352 351 351 352 352 352 351
356 355 354 354 355 354 354 355 356 357 359 359 359 358 359 358 358 358 357 357 358 357 357 357 358 358 359 358 356 356 355 356 356 356 354 353 352 351 352 354 353 353
356 355 356 356 354 354 354 355 356 356 357 358 359 358 357 357 357 359 360 359 359 357 356 357 358 357 360 360 359 358 357 356 354 354 353 352 352 352 352 354 356 356
352 356 357 356 355 356 356 356 356 356 357 359 359 359 357 357 356 356 358 359 359 359 359 359 359 358 360 361 361 359 356 355 355 355 353 352 351 352 352 353 356 358
353 353 355 354 357 359 357 355 354 355 357 359 360 359 359 359 358 356 356 357 358 359 360 359 358 357 357 359 359 359 358 355 356 356 355 354 353 352 354 354 357 358
349 351 351 352 352 353 354 355 356 357 359 359 358 359 361 363 363 361 359 356 356 358 359 359 358 357 361 364 362 360 359 355 354 355 357 356 354 354 352 354 355 358
346 347 348 348 350 351 353 353 353 355 357 358 358 358 359 361 361 360 359 358 356 355 356 357 357 357 364 345 346 352 358 358 357 357 358 356 355 355 355 355 356 357
344 345 345 345 346 347 349 350 350 352 353 356 357 356 357 357 357 358 360 359 358 357 356 357 357 360 343 341 343 342 353 355 355 355 356 356 357 356 354 355 356 356
343 342 342 343 344 345 346 346 347 349 349 351 353 355 356 355 357 354 356 358 359 359 359 358 358 353 337 339 339 338 341 354 354 357 356 356 357 357 358 357 357 356
341 341 340 341 342 342 343 343 344 345 347 349 350 353 354 354 354 354 355 358 358 358 359 360 360 357 337 339 337 336 337 345 355 355 357 357 358 359 360 362 362 361
339 339 339 340 341 341 342 343 343 344 344 345 347 348 352 352 353 354 355 356 353 354 355 357 359 336 335 336 334 333 335 346 354 354 356 356 357 360 362 363 365 364
337 337 338 339 339 340 340 340 342 343 342 344 345 346 348 350 352 353 355 356 355 358 352 354 356 332 334 334 332 332 336 351 355 356 356 355 357 359 360 364 366 366
337 336 337 337 338 337 337 338 339 340 341 343 343 344 345 346 350 351 354 356 356 357 354 355 356 339 329 330 329 329 339 355 356 355 357 357 358 359 360 363 365 367
336 336 336 336 336 335 336 337 339 341 341 343 342 342 343 345 348 349 351 354 354 353 355 354 351 331 323 321 322 326 341 354 358 358 359 359 360 362 364 360 361 361
336 335 335 335 334 335 336 337 338 339 340 341 342 342 343 345 345 347 349 350 353 353 350 351 349 334 319 320 320 323 340 355 354 357 358 354 357 355 353 354 355 359
336 335 334 335 334 335 336 336 338 338 337 338 339 340 341 343 346 346 347 346 346 347 347 347 346 342 331 318 319 321 325 346 351 351 352 353 356 350 351 348 349 353
Wind_Speed
8 8 7 7 7 7 7 7 7 7 7 7 8 8 8 8 9 9 10 9 10 10 9 9 8 8 8 7 7 7 7 7 7 6 6 7 7 7 7 7 7 6
9 8 6 6 6 6 7 7 7 7 7 7 7 6 7 7 9 9 9 10 10 10 9 9 9 9 8 7 7 7 7 7 8 7 7 7 6 7 8 8 8 6
9 8 8 9 8 9 9 8 7 7 7 8 8 7 7 8 8 9 9 9 9 9 9 8 9 9 9 8 7 7 7 7 7 8 7 6 6 6 6 7 7 7
9 8 8 8 8 9 8 7 7 7 7 7 8 8 8 7 8 9 9 10 9 9 8 9 9 9 9 9 8 8 8 7 7 7 6 6 6 7 7 6 6 7
8 8 8 8 8 8 8 7 8 8 8 7 7 8 8 8 7 9 9 10 9 9 9 8 9 9 8 8 8 8 8 8 8 7 7 7 7 7 7 7 7 7
6 6 7 8 7 6 8 8 8 8 8 8 8 7 8 9 9 9 9 10 10 11 10 10 10 10 10 9 8 8 8 8 8 9 8 8 8 7 7 6 7 7
7 7 8 7 8 9 8 8 7 7 7 7 7 8 8 9 9 10 9 9 10 10 11 9 9 9 9 8 8 8 8 8 8 7 7 8 7 8 8 8 7 7
7 6 6 7 7 7 8 11 7 7 7 7 8 8 8 9 9 9 10 10 10 10 10 10 9 9 9 9 9 9 10 8 9 9 8 8 7 7 8 7 7 7
6 6 5 7 7 7 10 13 8 8 7 8 8 7 8 9 9 10 9 10 10 10 10 10 9 10 10 9 8 9 10 10 9 9 9 9 9 9 9 8 9 8
6 4 6 7 7 5 10 13 8 8 8 8 8 7 8 8 9 10 10 9 10 10 10 9 9 9 9 9 10 10 9 9 9 9 8 9 9 9 9 8 8 8
6 6 6 6 6 8 13 12 10 8 8 8 8 8 8 8 8 9 9 10 10 11 10 10 10 9 9 9 9 9 10 10 9 9 9 10 10 9 8 8 8 8
6 6 6 7 8 9 10 9 8 8 8 8 9 8 8 8 8 8 9 10 10 10 11 11 10 10 9 9 10 10 9 9 9 10 10 10 10 10 10 9 8 8
5 5 5 6 6 8 7 7 7 8 8 9 8 8 9 9 9 9 8 9 10 10 11 10 10 10 9 9 10 10 9 9 10 10 10 10 10 10 9 9 9 9
2 3 4 4 3 4 6 6 7 7 7 7 7 8 9 9 9 10 10 10 10 10 10 10 10 10 10 10 10 10 10 11 10 10 11 11 11 10 10 10 9 8
2 2 2 3 3 4 5 5 6 7 7 7 6 7 7 8 9 9 10 10 10 10 10 10 10 10 10 10 11 11 11 11 11 11 11 11 10 10 10 9 8 8
3 3 4 4 4 3 3 3 4 5 6 6 7 7 7 7 7 8 9 10 10 10 10 9 9 9 10 11 8 8 10 10 10 10 11 10 10 10 10 10 10 9
3 4 4 4 4 4 5 5 5 5 5 6 7 8 7 7 8 9 9 10 11 10 11 10 10 9 8 10 7 5 7 8 9 9 10 10 11 11 10 10 10 10
3 4 4 5 5 6 5 6 6 7 7 6 7 8 8 9 9 9 9 10 10 11 11 10 10 9 12 12 10 11 9 8 9 9 9 10 10 11 10 10 10 10
4 4 5 5 5 5 5 6 7 7 8 8 8 8 6 8 6 9 10 10 10 10 10 11 11 9 14 12 12 11 11 9 8 9 9 9 10 10 10 10 10 9
4 5 5 5 5 6 6 7 7 8 8 7 8 8 8 8 9 11 9 7 8 9 9 9 12 7 10 11 10 10 9 9 9 9 9 10 10 10 10 10 10 9
4 4 4 4 5 5 5 6 6 7 7 8 7 8 9 9 9 9 8 8 10 10 11 9 5 13 6 8 8 8 8 9 10 10 10 11 10 11 11 11 10 9
4 4 4 4 4 4 5 5 5 5 6 6 6 7 8 8 9 9 9 9 9 8 9 10 5 11 9 9 8 7 6 8 11 11 11 11 11 10 10 10 10 10
3 3 4 4 4 4 5 5 5 5 5 5 6 7 8 8 9 9 8 9 9 8 10 7 6 10 9 6 5 2 5 8 11 11 11 12 11 10 9 10 10 9
3 4 4 4 4 4 5 5 5 5 5 5 6 7 7 7 8 8 9 9 9 9 9 9 2 8 8 7 6 2 5 7 9 10 11 10 10 9 5 7 9 9
3 4 4 4 4 4 4 5 5 5 5 5 6 6 7 7 7 8 7 7 8 7 2 5 4 6 7 5 5 3 3 6 7 8 8 8 9 5 4 3 10 8
2 3 4 5 5 5 5 5 4 5 6 6 6 6 6 6 6 7 8 3 5 4 4 5 5 4 6 7 7 6 6 5 6 7 7 7 4 4 4 5 5 6
Wind_Direction
225 225 223 220 228 237 246 243 237 229 227 232 223 216 220 215 219 215 211 204 202 210 210 212 215 219 223 224 230 235 247 249 254 242 248 261 265 266 268 268 274 273
222 224 228 226 223 230 233 240 237 235 226 232 235 227 219 215 208 216 212 209 203 210 212 211 215 219 225 226 219 229 232 235 238 243 246 246 258 264 264 267 269 275
221 220 221 225 226 228 231 227 230 231 228 229 226 223 221 211 214 207 214 211 211 210 205 215 218 219 222 223 226 227 227 229 243 245 248 249 262 267 274 276 269 269
221 229 230 228 230 240 236 225 220 229 230 219 224 218 219 220 212 208 207 214 215 216 214 209 217 218 216 219 219 227 228 229 235 245 250 256 256 262 262 258 264 265
224 218 223 232 237 237 247 243 232 221 221 225 223 220 217 220 221 215 206 204 215 216 213 217 214 222 219 220 219 226 228 228 224 227 235 240 245 247 256 262 268 272
238 235 226 231 242 272 248 236 241 235 227 223 223 222 218 210 215 221 213 208 205 215 218 213 214 216 218 215 220 229 230 231 225 217 227 236 249 252 256 252 254 260
224 223 227 226 230 230 261 263 241 242 239 231 222 224 223 217 214 213 218 217 218 212 218 219 219 224 219 218 217 222 229 235 241 233 229 236 237 249 255 256 255 261
241 229 222 233 234 245 250 248 234 236 234 234 228 220 223 225 221 213 209 216 217 219 220 220 212 214 227 219 218 219 226 227 228 225 230 241 252 249 244 254 254 248
236 234 242 240 239 250 252 250 232 231 228 229 229 223 215 224 221 221 215 211 218 219 217 222 218 215 217 226 225 225 228 235 232 223 224 233 232 234 242 243 246 247
235 208 231 234 237 253 269 254 243 231 227 228 227 225 223 216 226 227 216 215 220 220 219 224 220 219 222 221 224 228 230 231 238 241 237 233 235 242 239 238 242 246
233 226 211 225 235 230 235 244 243 239 228 231 226 225 223 224 216 228 229 214 218 219 220 222 224 222 222 228 227 224 229 232 232 233 237 240 245 247 250 254 257 253
207 212 232 225 223 246 254 245 244 240 236 229 230 228 224 226 223 218 222 223 224 225 224 222 223 227 225 228 230 229 226 228 233 233 234 241 242 243 244 246 249 251
200 205 209 227 227 239 242 243 246 249 242 236 231 234 229 225 221 218 220 221 223 227 229 223 219 220 222 223 232 236 237 236 235 236 238 242 244 244 247 246 245 249
215 225 226 235 241 254 254 248 250 249 247 247 243 237 239 236 229 218 215 219 220 221 222 222 215 219 217 221 224 230 232 235 237 241 242 243 244 240 240 240 240 245
282 260 230 244 242 258 255 251 248 250 251 254 248 252 246 240 240 238 230 221 217 220 221 221 219 214 218 213 216 223 230 236 237 240 239 244 246 249 247 245 243 240
276 281 282 282 273 252 265 272 269 265 255 249 251 246 250 258 254 248 244 235 226 219 217 219 223 223 216 214 222 227 219 229 234 236 239 242 245 246 247 247 245 243
265 267 282 276 276 282 277 280 266 254 248 242 238 240 247 244 249 245 241 239 234 228 224 217 219 226 191 159 178 248 259 242 238 238 236 237 240 242 248 253 253 247
252 273 280 286 283 271 270 266 269 272 271 255 248 235 229 237 236 238 245 244 237 233 230 229 227 210 155 165 182 200 221 244 242 240 236 232 233 240 243 244 246 246
272 271 269 269 272 276 273 270 269 263 262 264 257 252 251 239 232 251 241 238 244 243 240 234 236 173 163 170 184 195 204 228 241 244 246 241 238 235 237 243 243 243
283 280 278 281 277 274 272 271 268 263 263 264 270 262 254 251 231 228 237 244 256 262 244 239 242 157 166 168 179 192 201 214 237 240 240 243 243 238 236 233 234 235
296 287 283 285 280 272 270 261 258 265 265 262 259 259 260 254 253 247 231 215 229 232 246 243 243 83 201 172 175 191 202 213 237 241 237 237 235 236 234 234 230 230
291 292 284 281 283 286 282 278 276 275 275 274 273 265 262 265 263 257 256 245 231 225 243 237 189 157 185 166 161 199 186 229 235 236 243 244 244 240 235 233 232 230
309 310 305 301 310 299 291 291 292 291 280 278 270 259 261 255 255 259 254 251 247 245 243 241 228 173 157 136 115 133 220 242 247 248 244 242 242 246 245 241 236 231
308 307 305 308 305 297 295 293 290 285 284 289 284 284 272 263 265 260 253 258 259 248 249 256 111 72 81 92 97 70 292 262 254 250 247 250 247 247 275 301 283 265
315 315 313 314 306 308 308 303 308 312 305 295 283 273 274 274 265 261 261 254 259 272 348 270 125 83 61 61 66 36 285 268 271 270 277 285 278 328 291 265 288 271
339 324 321 324 321 316 311 304 310 306 305 299 288 279 275 269 270 252 257 313 36 30 34 27 54 75 58 31 13 356 338 289 272 273 270 258 266 282 299 262 255 298